When you browse on this site, cookies collect data to enhance your experience and personalize the content and advertising you see.
Visit our Privacy Policy to learn more. By continuing to use the site, you agree to this use of cookies and data.
  • In France
  • List of Countries
  • For 7 days
  • Water Temperature
  • Weather Map
  • Weather Widgets
  • user-avatar
    Login

    Hourly Weather Frankfurt am Mein

    Today, 25 January, Saturday

    Time Temperature Precipitation Wind Pressure Humidity
    00:00 -2°C° 0 mm 0 mps 725 mmHg 74%
    01:00 -3°C° 0 mm 0 mps 725 mmHg 75%
    02:00 -3°C° 0 mm 0 mps 725 mmHg 75%
    03:00 -3°C° 0 mm 0 mps 725 mmHg 76%
    04:00 -3°C° 0 mm 0 mps 724 mmHg 77%
    05:00 -3°C° 0 mm 0 mps 724 mmHg 77%
    06:00 -2°C° 0 mm 0 mps 724 mmHg 77%
    07:00 -1°C° 0 mm 1 mps 724 mmHg 78%
    08:00 -2°C° 0 mm 0 mps 725 mmHg 76%
    09:00 -1°C° 0 mm 0 mps 725 mmHg 74%
    10:00 -1°C° 0 mm 0 mps 725 mmHg 72%
    11:00 0°C° 0 mm 0 mps 725 mmHg 70%
    12:00 +1°C° 0 mm 0 mps 725 mmHg 68%
    13:00 +2°C° 0 mm 0 mps 725 mmHg 66%
    14:00 +2°C° 0 mm 0 mps 724 mmHg 70%
    15:00 +2°C° 0 mm 0 mps 724 mmHg 74%
    16:00 +2°C° 0 mm 0 mps 724 mmHg 78%
    17:00 +1°C° 0 mm 0 mps 724 mmHg 81%
    18:00 0°C° 0 mm 0 mps 724 mmHg 84%
    19:00 0°C° 0 mm 1 mps 723 mmHg 88%
    20:00 -1°C° 0 mm 0 mps 723 mmHg 89%
    21:00 -1°C° 0 mm 0 mps 723 mmHg 90%
    22:00 -1°C° 0 mm 0 mps 723 mmHg 91%
    23:00 -1°C° 0 mm 0 mps 723 mmHg 92%

    Tomorrow, 26 January, Sunday

    Time Temperature Precipitation Wind Pressure Humidity
    00:00 -1°C° 0 mm 0 mps 723 mmHg 93%
    01:00 -1°C° 0 mm 0 mps 723 mmHg 94%
    02:00 0°C° 0 mm 1 mps 723 mmHg 94%
    03:00 0°C° 0 mm 1 mps 722 mmHg 95%
    04:00 0°C° 0 mm 1 mps 722 mmHg 95%
    05:00 0°C° 0 mm 1 mps 722 mmHg 95%
    06:00 0°C° 0 mm 1 mps 722 mmHg 96%
    07:00 -1°C° 0 mm 1 mps 722 mmHg 96%
    08:00 0°C° 0 mm 1 mps 722 mmHg 95%
    09:00 +1°C° 0 mm 1 mps 722 mmHg 94%
    10:00 +1°C° 0 mm 1 mps 723 mmHg 93%
    11:00 +2°C° 0 mm 1 mps 722 mmHg 89%
    12:00 +3°C° 0 mm 1 mps 722 mmHg 86%
    13:00 +3°C° 0 mm 2 mps 722 mmHg 82%
    14:00 +3°C° 0 mm 2 mps 721 mmHg 84%
    15:00 +4°C° 0 mm 1 mps 721 mmHg 85%
    16:00 +3°C° 0 mm 1 mps 721 mmHg 87%
    17:00 +3°C° 0 mm 1 mps 721 mmHg 89%
    18:00 +2°C° 0 mm 1 mps 721 mmHg 91%
    19:00 +1°C° 0 mm 1 mps 721 mmHg 93%
    20:00 +1°C° 0.1 mm 1 mps 721 mmHg 93%
    21:00 +2°C° 0.1 mm 1 mps 721 mmHg 94%
    22:00 +2°C° 0.1 mm 1 mps 721 mmHg 95%
    23:00 +2°C° 0.2 mm 1 mps 720 mmHg 96%

    Day after tomorrow, 27 January, Monday

    Time Temperature Precipitation Wind Pressure Humidity
    00:00 +2°C° 0.2 mm 1 mps 720 mmHg 96%
    01:00 +2°C° 0.2 mm 1 mps 720 mmHg 97%
    02:00 +2°C° 0 mm 2 mps 720 mmHg 97%
    03:00 +2°C° 0 mm 2 mps 719 mmHg 97%
    04:00 +2°C° 0 mm 2 mps 719 mmHg 97%
    05:00 +2°C° 0 mm 2 mps 719 mmHg 97%
    06:00 +3°C° 0 mm 2 mps 718 mmHg 96%
    07:00 +2°C° 0 mm 3 mps 718 mmHg 96%
    08:00 +2°C° 0 mm 3 mps 718 mmHg 94%
    09:00 +2°C° 0 mm 3 mps 718 mmHg 93%
    10:00 +3°C° 0 mm 3 mps 718 mmHg 92%
    11:00 +3°C° 0.1 mm 3 mps 717 mmHg 91%
    12:00 +3°C° 0.1 mm 4 mps 717 mmHg 90%
    13:00 +3°C° 0.1 mm 4 mps 717 mmHg 89%
    14:00 +4°C° 0.1 mm 3 mps 716 mmHg 89%
    15:00 +4°C° 0.1 mm 3 mps 716 mmHg 89%
    16:00 +4°C° 0.1 mm 3 mps 715 mmHg 90%
    17:00 +3°C° 0.4 mm 3 mps 715 mmHg 91%
    18:00 +3°C° 0.4 mm 3 mps 714 mmHg 92%
    19:00 +3°C° 0.4 mm 3 mps 714 mmHg 94%
    20:00 +3°C° 0.3 mm 3 mps 713 mmHg 94%
    21:00 +3°C° 0.3 mm 3 mps 713 mmHg 94%
    22:00 +3°C° 0.3 mm 3 mps 712 mmHg 94%
    23:00 +3°C° 0.2 mm 3 mps 711 mmHg 94%

    28 January, Tuesday

    Time Temperature Precipitation Wind Pressure Humidity
    00:00 +3°C° 0.2 mm 3 mps 710 mmHg 93%
    01:00 +4°C° 0.2 mm 3 mps 710 mmHg 93%
    02:00 +4°C° 0.3 mm 4 mps 708 mmHg 92%
    03:00 +4°C° 0.3 mm 4 mps 707 mmHg 92%
    04:00 +4°C° 0.3 mm 4 mps 706 mmHg 91%
    05:00 +3°C° 1.2 mm 5 mps 705 mmHg 90%
    06:00 +3°C° 1.2 mm 6 mps 705 mmHg 89%
    07:00 +3°C° 1.2 mm 7 mps 704 mmHg 88%
    08:00 +2°C° 0.5 mm 7 mps 705 mmHg 86%
    09:00 +2°C° 0.5 mm 6 mps 705 mmHg 84%
    10:00 +1°C° 0.5 mm 6 mps 706 mmHg 82%
    11:00 +1°C° 0.7 mm 6 mps 706 mmHg 79%
    12:00 0°C° 0.7 mm 7 mps 707 mmHg 77%
    13:00 0°C° 0.7 mm 7 mps 708 mmHg 74%
    14:00 0°C° 0.1 mm 7 mps 709 mmHg 69%
    15:00 0°C° 0.1 mm 7 mps 710 mmHg 64%
    16:00 0°C° 0.1 mm 7 mps 710 mmHg 59%
    17:00 -1°C° 0 mm 6 mps 711 mmHg 64%
    18:00 -1°C° 0 mm 6 mps 711 mmHg 68%
    19:00 -1°C° 0 mm 5 mps 711 mmHg 73%
    20:00 -2°C° 0.2 mm 6 mps 711 mmHg 78%
    21:00 -2°C° 0.2 mm 6 mps 711 mmHg 83%
    22:00 -2°C° 0.2 mm 7 mps 710 mmHg 88%
    23:00 -2°C° 0.2 mm 7 mps 709 mmHg 88%

    29 January, Wednesday

    Time Temperature Precipitation Wind Pressure Humidity
    00:00 -2°C° 0.2 mm 7 mps 708 mmHg 87%
    01:00 -2°C° 0.2 mm 6 mps 707 mmHg 87%
    02:00 -2°C° 0.9 mm 8 mps 707 mmHg 83%
    03:00 -3°C° 0.9 mm 9 mps 706 mmHg 79%
    04:00 -3°C° 0.9 mm 10 mps 706 mmHg 75%
    05:00 -3°C° 0.2 mm 9 mps 707 mmHg 75%
    06:00 -2°C° 0.2 mm 8 mps 708 mmHg 75%
    07:00 -3°C° 0.2 mm 7 mps 710 mmHg 75%
    08:00 -3°C° 0 mm 7 mps 711 mmHg 72%
    09:00 -3°C° 0 mm 7 mps 712 mmHg 70%
    10:00 -3°C° 0 mm 7 mps 713 mmHg 67%
    11:00 -2°C° 0 mm 7 mps 713 mmHg 67%
    12:00 -1°C° 0 mm 7 mps 713 mmHg 66%
    13:00 -1°C° 0 mm 7 mps 713 mmHg 66%
    14:00 -1°C° 0 mm 7 mps 713 mmHg 67%
    15:00 -1°C° 0 mm 6 mps 713 mmHg 69%
    16:00 -1°C° 0 mm 6 mps 713 mmHg 71%
    17:00 -1°C° 0.9 mm 5 mps 713 mmHg 77%
    18:00 -1°C° 0.9 mm 5 mps 713 mmHg 84%
    19:00 -2°C° 0.9 mm 5 mps 713 mmHg 91%
    20:00 -2°C° 0.1 mm 5 mps 714 mmHg 89%
    21:00 -2°C° 0.1 mm 5 mps 714 mmHg 88%
    22:00 -2°C° 0.1 mm 5 mps 715 mmHg 86%
    23:00 -2°C° 0 mm 5 mps 715 mmHg 85%

    30 January, Thursday

    Time Temperature Precipitation Wind Pressure Humidity
    00:00 -2°C° 0 mm 5 mps 716 mmHg 84%
    01:00 -2°C° 0 mm 4 mps 716 mmHg 83%
    02:00 -2°C° 0.1 mm 4 mps 716 mmHg 86%
    03:00 -2°C° 0.1 mm 4 mps 716 mmHg 90%
    04:00 -2°C° 0.1 mm 4 mps 716 mmHg 93%
    05:00 -1°C° 0.5 mm 5 mps 716 mmHg 89%
    06:00 -1°C° 0.5 mm 6 mps 715 mmHg 86%
    07:00 -1°C° 0.5 mm 7 mps 715 mmHg 83%
    08:00 -1°C° 0.2 mm 7 mps 715 mmHg 83%
    09:00 0°C° 0.2 mm 7 mps 716 mmHg 83%
    10:00 0°C° 0.2 mm 7 mps 716 mmHg 83%
    11:00 +1°C° 0.1 mm 6 mps 717 mmHg 84%
    12:00 +1°C° 0.1 mm 6 mps 717 mmHg 85%
    13:00 +2°C° 0.1 mm 5 mps 718 mmHg 86%
    14:00 +2°C° 0.1 mm 5 mps 718 mmHg 86%
    15:00 +2°C° 0.1 mm 5 mps 718 mmHg 87%
    16:00 +3°C° 0.1 mm 4 mps 718 mmHg 88%
    17:00 +1°C° 0 mm 4 mps 718 mmHg 88%
    18:00 +2°C° 0 mm 3 mps 718 mmHg 88%
    19:00 +2°C° 0 mm 3 mps 718 mmHg 89%
    20:00 +2°C° 0 mm 3 mps 718 mmHg 89%
    21:00 +1°C° 0 mm 3 mps 718 mmHg 90%
    22:00 +2°C° 0 mm 2 mps 718 mmHg 91%
    23:00 +2°C° 0 mm 2 mps 718 mmHg 91%
    Show more